マクノート彗星

421P/McNaught (2021)

English version
Home page
Updated on January 20, 2022

---------------------------------------------------------------------

・ プロフィール

符号 421P/2020 H10
検出日 2020年4月20日、4月26日
検出光度 21.7等、21.5等
検出者 Pan-STARRS 1 telescope (Haleakala), Mt. Lemmon Survey

・ 軌道要素

Epoch 2022 Jan. 21.0 TT = JDT 2459600.5
T 2021 Jan. 25.81878 TT                                 Rudenko
q   1.6468652            (2000.0)            P               Q
n   0.08619888     Peri.  259.83047     +0.69681495     +0.70265184
a   5.0753770      Node    55.34857     -0.57027627     +0.66449564
e   0.6755186      Incl.   10.07987     -0.43501022     +0.25441291
P  11.4
From 124 observations 2009 Oct. 11-2021 Oct. 31, mean residual 0".7.

・ 光度変化

        m1 = 14.0 + 5 logΔ + 10.0 log r

---------------------------------------------------------------------

軌道要素はM.P.E.C. 2021-W31に掲載されたものです。
光度グラフはComet for Windowsで作成したものです。

---------------------------------------------------------------------

Copyright(C) Seiichi Yoshida (comet@aerith.net). All rights reserved.